Wind_Speed
69 71 74 76 78 79 80 80 81 81 82 83 84 86 87 88 89 89 91 91 92 92 93 93 94 94 95 95 95 96 97 97 98 99 101 103 105 107 108 108 108 107 107 107 107 108 108 109 109 109 110 110 110 110 111 111 112 112 113 114 114 115 115 115 114 112 112 113 112 112 112 112 113 114 116 117 117 117 117 117 116 116 117 117 118
65 67 70 73 75 77 78 79 79 80 80 81 82 83 84 86 87 88 89 90 90 91 92 93 93 94 95 95 96 96 96 97 97 98 99 100 102 104 106 107 108 109 110 110 110 110 110 110 110 111 111 111 112 112 113 114 114 114 115 116 116 117 118 118 117 116 115 115 115 115 115 115 115 115 116 117 118 118 117 117 117 117 117 118 119
62 64 66 69 71 73 75 76 77 78 78 79 80 80 81 82 84 85 87 88 88 90 91 92 93 94 94 95 95 96 96 96 97 97 98 99 100 101 103 104 105 106 108 109 111 112 112 112 112 112 113 113 113 113 114 115 115 116 116 117 117 118 119 119 118 117 116 116 117 116 116 117 116 117 117 117 118 118 118 118 118 119 120 121 123
59 61 64 66 67 69 71 73 75 76 76 77 78 78 79 80 81 83 84 86 87 88 90 91 92 93 93 94 95 95 96 96 97 97 98 99 100 101 101 102 103 103 104 106 107 108 109 110 111 112 113 113 113 113 114 114 115 115 115 115 116 116 117 118 118 118 118 118 118 117 118 118 118 118 118 118 118 119 119 120 121 122 123 123 123
57 59 61 63 65 66 68 70 72 73 73 74 75 76 77 78 79 81 82 84 85 86 88 89 91 92 93 93 94 95 96 96 97 97 98 99 100 100 101 101 102 102 103 104 104 106 106 107 108 110 111 111 112 112 113 113 113 114 114 114 115 116 117 118 119 119 119 119 119 119 119 119 119 119 120 120 120 121 122 122 122 121 120 119 117
56 57 59 61 63 64 66 68 69 70 71 72 73 74 75 76 77 78 80 81 83 84 86 87 89 90 92 93 94 96 96 97 98 98 99 99 100 100 101 101 102 103 103 104 105 106 106 107 108 109 110 110 111 112 113 113 114 115 115 116 116 117 118 119 120 120 120 120 120 120 120 120 121 122 122 123 122 121 120 119 118 117 115 113 112
55 56 57 59 61 63 65 66 68 69 70 71 72 73 73 74 75 77 78 79 81 82 83 85 87 88 90 92 93 95 96 97 98 99 100 100 101 101 102 102 103 104 104 105 106 107 108 108 109 110 110 111 112 112 113 114 115 115 116 116 117 117 118 118 119 120 120 120 121 121 121 122 122 121 121 120 119 117 116 115 114 113 112 111 110
55 56 57 58 59 61 63 65 67 68 70 71 72 72 73 74 75 76 77 78 79 80 81 83 84 86 88 89 91 92 94 96 98 99 100 100 101 102 103 103 104 105 106 106 107 108 109 109 110 110 111 111 112 113 113 114 114 115 115 116 116 117 117 118 119 120 120 120 120 120 119 118 118 116 116 115 114 113 113 112 111 111 111 111 111
54 56 57 58 59 60 62 64 66 67 69 71 72 73 73 74 75 75 76 77 78 79 80 82 83 84 86 87 89 90 92 94 96 97 98 99 100 101 102 103 104 105 106 107 107 108 109 110 110 111 111 111 112 112 113 114 114 114 115 116 116 116 117 117 117 117 117 117 117 116 115 114 114 114 113 113 113 112 112 112 112 112 113 113 115
52 55 56 58 59 60 62 63 65 67 68 70 72 73 74 74 75 76 76 77 77 78 80 81 82 83 85 86 88 89 91 92 94 94 95 97 98 98 99 101 102 103 104 105 106 107 108 109 109 110 110 110 111 111 111 112 112 112 113 113 113 113 113 114 114 114 114 114 114 114 113 113 113 113 113 113 113 114 114 115 115 116 117 118 119
50 52 55 57 59 60 62 63 64 66 67 69 71 72 73 75 75 76 77 77 78 78 80 81 82 83 84 85 87 88 90 91 92 93 94 95 96 96 97 98 99 101 102 103 105 106 107 107 108 108 108 109 109 109 109 110 110 110 110 110 111 111 111 111 112 112 112 112 112 112 112 113 113 114 114 115 116 117 117 118 119 120 122 122 123
49 51 53 55 57 59 61 63 64 66 67 68 70 71 73 74 75 76 77 78 78 79 80 81 82 83 84 85 87 88 90 91 92 92 93 94 95 95 96 97 98 100 101 102 103 105 105 106 106 107 107 107 107 107 108 108 109 108 108 109 109 110 111 111 111 112 112 113 113 113 114 114 115 116 117 118 118 119 120 121 122 124 124 125 126
48 50 52 54 56 58 60 62 64 65 67 68 70 71 73 74 75 76 77 78 79 80 81 81 82 83 84 85 86 88 90 91 91 91 92 93 93 94 95 96 98 99 100 101 102 103 103 104 104 105 105 106 106 106 106 106 106 107 107 108 108 109 110 110 111 112 113 113 114 114 115 116 117 118 119 120 121 122 123 123 124 125 125 125 125
46 48 51 53 55 57 59 61 62 64 66 67 69 70 72 73 74 75 76 78 79 79 80 81 81 82 82 83 84 86 87 88 88 88 89 90 91 92 93 95 97 98 100 101 101 102 102 103 103 104 105 105 105 105 105 106 106 107 107 108 109 110 111 111 112 113 114 114 115 116 116 117 118 118 120 120 120 120 120 120 120 120 119 118 118
42 45 48 50 52 55 57 59 60 62 64 65 66 68 69 70 72 73 74 75 76 77 78 79 79 80 81 81 82 83 84 84 84 84 84 85 85 85 87 90 92 94 95 97 97 98 99 100 100 101 102 103 103 103 104 105 105 106 107 108 109 109 110 110 111 111 112 112 112 113 113 113 113 113 114 113 113 113 112 112 112 111 111 110 111
40 42 44 47 49 51 53 55 57 59 60 61 63 64 65 67 68 69 70 71 72 73 74 75 76 77 77 77 78 79 80 80 80 80 79 79 79 79 81 83 86 88 89 90 90 91 92 93 93 94 95 96 97 96 97 97 98 99 100 100 101 101 102 103 102 102 103 104 104 104 104 104 104 104 105 105 105 105 104 104 104 104 104 104 104
39 41 43 45 46 48 50 51 53 55 56 57 59 60 61 62 63 64 65 66 68 68 69 71 72 73 73 73 74 75 76 76 76 75 75 74 74 75 76 77 80 83 84 84 85 85 86 87 87 87 88 89 89 89 89 90 91 91 92 92 93 93 94 94 94 94 95 95 96 96 96 96 97 97 98 98 99 99 98 98 98 99 99 99 99
38 40 42 43 45 46 48 49 51 52 53 54 55 56 57 57 58 59 59 61 62 63 64 65 67 68 69 70 70 71 72 72 72 72 71 70 70 71 72 73 75 78 79 80 80 81 81 82 82 82 82 83 83 84 84 85 85 85 86 86 86 87 87 87 87 88 89 89 90 91 91 91 92 93 93 94 94 94 94 94 95 95 95 95 95
35 38 40 42 44 45 46 48 49 50 51 52 52 53 54 54 55 55 56 57 58 59 59 60 62 64 65 66 66 67 68 68 68 68 68 68 67 68 69 70 71 74 75 76 77 77 77 77 77 77 77 78 78 79 80 80 80 80 81 81 81 81 82 82 83 84 85 85 86 87 87 88 89 89 89 89 89 90 91 91 91 91 91 91 90
33 35 36 38 40 43 45 46 48 48 49 50 50 51 51 52 52 53 53 54 55 56 56 57 58 60 61 62 63 64 64 65 65 65 65 65 65 65 66 68 69 71 72 74 74 75 75 75 74 73 73 74 75 75 76 77 77 77 77 77 77 77 78 79 80 80 81 82 83 83 84 85 85 85 85 84 85 86 87 87 87 87 86 85 84
36 36 36 36 37 38 40 42 45 46 47 48 48 48 48 49 49 49 50 51 51 51 52 54 55 57 57 59 60 60 61 61 62 62 62 62 63 63 64 65 67 68 70 71 72 73 73 73 72 72 71 71 72 73 73 73 73 73 74 74 74 74 75 76 77 78 79 79 80 80 81 81 81 80 80 80 81 82 83 83 82 81 80 79 77
38 38 38 38 37 37 36 37 39 41 43 44 45 46 46 46 46 47 47 48 48 48 49 51 53 53 54 55 56 57 57 58 58 59 59 59 59 60 61 62 64 65 66 68 70 70 70 71 70 69 69 69 70 70 70 70 70 71 71 72 72 73 73 75 75 76 76 76 76 76 76 76 75 75 75 76 77 77 77 77 76 74 73 72 71
38 38 38 38 38 37 36 35 35 35 37 39 40 42 43 43 43 44 46 46 46 46 48 49 50 51 52 53 54 55 55 55 56 56 56 57 57 57 58 60 61 62 64 66 67 68 68 68 68 67 67 67 68 69 68 68 69 69 70 70 70 70 71 71 71 72 72 72 72 71 70 70 70 71 71 71 71 71 70 69 68 67 66 65 64
40 39 38 37 37 36 36 35 34 33 33 34 35 37 38 39 40 42 43 44 44 45 46 47 48 50 51 51 52 53 54 54 55 55 56 57 57 57 58 59 60 61 62 64 65 66 66 66 66 65 65 66 67 67 67 67 67 67 66 66 65 65 66 66 67 67 67 66 66 65 65 66 66 66 66 65 64 63 62 60 60 59 58 58 57
42 40 39 37 36 35 33 32 32 32 32 32 33 34 35 36 37 38 40 41 42 43 44 45 46 48 49 50 51 51 52 53 54 55 56 57 58 59 59 60 61 61 62 63 64 64 65 64 63 63 64 65 65 65 64 64 63 62 62 61 62 62 63 64 64 64 63 62 62 62 62 61 61 60 59 58 57 56 55 54 53 53 52 53 53
44 43 41 38 36 34 32 30 29 29 30 31 32 33 34 34 34 35 37 38 39 41 42 43 44 45 46 47 49 50 51 52 54 55 55 56 57 57 58 59 59 60 61 62 62 62 62 61 60 60 61 62 62 61 60 59 59 59 59 59 60 61 61 62 62 60 59 59 58 58 57 56 55 53 52 52 51 50 49 49 49 49 49 50 50
46 44 42 39 36 33 30 28 27 27 27 28 29 30 31 31 32 33 34 36 37 39 40 41 41 42 44 46 47 49 50 52 53 54 55 56 56 57 57 56 56 56 57 58 58 58 58 57 57 57 58 58 58 57 57 56 57 57 58 58 59 59 59 59 58 56 56 55 54 53 51 50 48 47 46 46 46 46 46 45 46 46 47 48 49
48 46 44 40 36 32 29 27 26 26 25 25 26 27 28 29 30 31 32 34 35 36 36 37 38 41 43 45 46 48 49 50 51 52 53 54 54 54 54 54 53 53 53 53 52 53 53 54 54 55 55 55 55 55 55 55 55 56 56 56 56 56 55 54 53 52 51 50 48 46 44 43 42 42 42 42 42 42 42 42 43 45 46 49 51
49 48 45 42 37 32 28 25 25 25 24 23 23 25 26 28 28 29 30 32 33 34 34 35 37 39 41 42 44 45 46 47 48 48 49 50 50 50 50 50 49 48 48 48 48 48 49 50 50 51 51 52 52 52 52 52 52 52 52 52 51 50 49 48 47 46 44 42 40 39 38 38 37 37 37 38 39 40 41 43 45 47 49 52 54
50 48 46 42 38 32 28 25 24 24 23 23 22 23 25 27 28 28 30 31 32 33 33 34 35 37 38 39 40 41 42 43 44 44 45 45 45 45 46 45 44 43 42 42 43 43 44 44 44 45 45 45 46 46 46 46 47 47 46 46 45 44 43 41 39 37 35 34 34 33 33 33 33 34 36 37 39 41 43 45 48 50 52 55 57
48 48 46 43 39 34 29 25 24 23 23 23 23 23 24 26 27 29 30 31 32 32 32 33 34 36 36 37 37 38 39 39 39 39 39 39 38 38 39 39 39 38 36 35 35 36 37 38 38 38 38 39 39 39 40 40 40 40 40 39 38 36 34 32 30 29 28 28 28 29 30 32 33 35 38 40 42 44 46 48 50 52 54 56 58
45 46 45 42 39 35 31 27 24 24 23 24 24 24 25 25 27 28 30 32 32 32 32 33 33 34 34 35 35 35 36 35 35 34 34 33 33 32 32 32 32 31 30 29 29 29 30 31 31 32 32 33 33 33 33 34 34 33 33 31 29 26 24 23 23 23 23 25 27 29 31 34 36 38 40 42 44 46 48 49 51 53 54 56 57
41 42 43 41 39 36 33 29 26 25 25 25 25 25 26 26 27 28 30 32 32 32 32 32 33 33 33 34 34 34 34 33 32 31 31 31 30 30 29 28 27 25 24 24 23 24 24 25 26 26 27 27 27 28 28 27 26 25 23 21 19 18 18 19 20 22 24 26 29 31 33 36 38 40 42 43 45 47 48 50 51 52 54 55 55
40 40 41 40 39 37 34 31 29 26 26 26 27 28 28 28 29 30 31 32 33 32 32 32 32 33 34 34 34 33 32 31 30 29 29 29 28 28 27 25 23 21 20 19 19 19 19 20 21 21 21 22 21 21 20 18 16 15 14 14 15 16 17 19 22 24 26 28 31 33 35 37 39 41 43 45 46 48 49 50 51 52 52 52 52
41 40 40 40 40 38 36 33 30 28 27 26 27 29 30 30 31 31 32 33 33 33 32 32 32 32 33 34 33 32 31 29 27 27 26 25 25 24 24 22 21 19 17 16 16 15 15 16 16 16 15 14 13 12 11 10 10 10 12 13 15 17 19 21 23 25 28 30 32 35 37 38 40 42 43 45 46 47 48 49 49 49 49 49 49
42 41 40 39 39 39 38 35 32 30 28 27 26 28 30 31 32 32 32 33 33 33 32 31 31 31 31 32 32 31 29 27 25 24 23 22 21 21 20 19 18 16 15 13 12 12 11 10 10 9 8 7 6 6 6 7 9 11 13 15 17 19 21 22 25 27 29 31 33 35 37 38 40 41 43 44 45 46 47 48 48 48 48 47 48
41 41 41 39 38 38 37 37 35 32 30 28 27 27 29 31 32 33 33 33 34 34 33 32 31 30 30 30 30 29 27 25 23 21 20 19 18 17 17 16 15 13 12 10 9 8 7 6 5 4 4 4 4 6 7 10 12 14 15 17 19 20 22 24 26 28 30 32 33 35 37 38 40 41 43 44 46 47 47 47 47 47 47 47 48
40 40 40 40 40 39 38 37 36 35 33 31 29 28 28 30 31 33 34 34 34 35 35 33 31 30 29 28 28 27 25 23 21 20 18 16 15 15 14 13 12 11 10 9 8 7 6 5 4 4 4 5 7 8 10 12 14 15 16 18 20 22 23 25 27 29 31 32 34 35 37 39 40 42 44 45 46 47 48 47 47 47 47 48 49
42 41 40 40 41 40 40 39 37 36 35 34 33 31 30 30 31 32 34 34 34 35 36 35 33 31 30 28 27 26 24 22 20 19 17 15 13 13 12 11 10 10 9 8 7 6 5 5 5 5 6 8 9 10 12 13 14 16 17 19 21 23 25 26 28 30 32 33 35 36 38 39 41 43 45 46 47 48 49 48 48 48 48 49 50
43 42 41 41 40 40 41 41 40 39 38 37 36 34 33 32 32 32 33 34 35 35 35 36 35 32 30 29 27 25 24 22 20 19 17 14 12 10 10 9 9 8 7 6 6 6 6 6 6 7 8 8 10 11 12 13 15 17 18 20 21 23 25 27 29 30 32 34 35 37 38 40 42 43 45 47 49 50 50 50 49 49 49 50 51
43 43 42 41 41 40 40 41 41 41 41 40 39 38 37 35 34 34 33 34 35 35 35 35 36 34 31 29 27 25 24 22 20 19 17 15 13 10 8 7 7 6 6 6 6 6 6 6 7 7 8 9 10 11 13 14 16 17 19 20 22 24 26 27 29 31 33 35 36 38 39 41 42 44 46 48 50 51 52 52 50 50 50 50 52
44 44 43 42 41 41 41 40 40 41 42 42 42 42 41 39 38 37 36 35 35 35 35 35 35 36 34 31 29 26 24 22 20 19 17 16 14 12 10 8 8 7 7 7 7 6 6 6 7 8 9 10 11 13 14 16 17 19 20 22 24 25 27 29 31 33 34 36 38 39 41 42 43 45 47 49 51 53 53 53 52 51 51 52 53
44 44 44 43 42 41 40 40 40 41 42 42 43 44 44 43 42 41 39 38 37 36 36 35 35 35 35 33 31 28 26 23 21 20 18 16 15 13 12 11 10 9 8 8 7 7 7 8 9 10 11 12 13 14 16 17 19 20 22 24 26 27 29 31 32 34 36 38 39 41 43 44 45 46 48 50 53 54 55 55 54 53 53 53 54
45 45 46 45 43 41 40 40 41 41 42 43 43 44 45 46 46 44 43 41 39 38 37 36 35 35 35 35 33 31 28 25 23 21 19 18 16 15 14 13 12 11 11 10 9 8 9 9 10 11 12 13 14 15 17 18 20 22 24 26 27 29 31 33 34 36 38 39 41 43 45 46 47 49 50 52 54 56 57 57 56 55 54 54 56
46 47 47 47 45 43 42 42 42 42 43 43 44 45 45 46 47 47 46 44 42 40 39 38 37 35 35 35 35 33 30 28 25 23 21 20 17 16 15 14 14 14 13 12 10 10 10 11 12 12 13 14 15 17 18 20 21 23 25 27 29 30 32 34 36 38 40 41 43 45 47 49 50 51 52 53 55 57 59 59 59 57 56 56 58
47 48 48 49 47 46 44 44 44 44 44 45 45 47 47 47 47 48 48 47 44 41 40 39 38 37 36 35 35 35 33 30 28 26 24 22 19 18 17 16 16 17 16 14 12 12 12 13 13 14 14 15 17 18 20 21 23 25 26 28 30 32 33 35 37 39 41 43 45 47 48 50 52 54 55 55 56 58 60 61 60 59 58 58 60
48 48 49 49 48 47 46 45 45 46 46 47 47 48 49 49 48 48 48 48 46 43 40 39 38 37 37 37 36 36 35 33 31 29 27 24 22 20 19 19 19 19 18 17 15 14 14 15 15 16 16 17 19 20 21 23 25 26 28 30 32 33 35 37 39 41 43 44 46 48 50 52 54 55 57 58 58 59 61 62 62 61 60 59 61
49 49 49 50 49 48 46 46 46 47 47 48 49 50 51 51 50 49 47 47 46 43 40 38 37 36 36 37 37 37 36 36 34 32 30 27 25 23 22 22 22 22 21 19 18 17 17 17 18 18 19 19 21 22 23 25 26 28 30 32 33 35 37 38 40 42 44 46 48 49 51 53 54 56 58 59 60 61 62 64 64 63 61 61 62
51 51 51 51 51 49 47 46 47 47 48 49 50 51 52 52 52 50 47 45 43 41 39 38 37 35 35 36 37 38 37 37 37 35 33 31 28 27 26 26 25 25 24 22 21 21 21 21 21 21 21 22 22 23 24 26 27 29 31 32 34 36 38 39 41 43 45 47 49 50 52 54 55 57 59 60 61 62 63 65 65 64 63 62 63
53 53 52 53 52 51 49 48 48 48 49 49 50 52 53 53 52 51 49 45 42 39 37 36 36 35 34 34 36 38 39 39 38 37 36 35 33 31 30 29 29 28 27 26 25 24 24 24 24 24 24 24 25 25 26 27 28 29 31 33 35 37 38 40 42 44 46 48 50 51 53 54 56 58 59 61 62 63 64 65 66 65 64 63 64
55 54 54 54 54 53 52 51 50 50 50 50 50 52 53 53 52 50 49 46 42 38 35 34 34 34 33 33 34 37 39 40 40 39 39 38 36 35 33 33 32 31 30 29 28 27 27 27 27 27 27 27 27 27 27 28 29 30 32 33 35 37 39 41 42 44 46 48 51 52 54 55 56 58 60 61 62 63 64 66 67 66 65 64 65
Wind_Direction
242 242 242 244 245 246 247 247 248 248 248 248 248 249 249 250 251 252 252 253 254 255 256 256 256 256 255 254 254 253 253 253 253 253 254 254 254 255 255 255 255 256 257 258 259 260 261 261 262 263 264 264 265 266 267 268 269 270 271 272 272 273 273 274 275 275 276 277 277 278 278 279 280 280 281 281 282 283 283 283 284 284 284 285 285
243 242 242 242 243 245 246 248 248 248 248 248 249 249 250 250 251 252 253 253 254 255 256 256 257 257 257 257 256 256 255 255 255 255 256 256 256 257 257 257 258 258 258 259 259 260 261 262 263 264 264 265 266 267 267 268 269 270 271 272 273 274 274 275 276 276 277 277 278 278 279 279 280 280 281 281 282 283 283 283 284 284 284 284 284
245 244 244 243 243 244 245 247 248 248 249 249 249 249 249 250 251 251 252 253 254 254 255 256 257 257 258 258 258 258 258 257 257 257 257 257 257 258 258 259 259 260 260 260 261 261 262 263 264 265 266 266 267 268 269 269 270 271 272 273 274 275 275 276 277 277 278 278 278 279 279 280 280 280 281 281 282 282 282 283 283 283 283 284 284
245 246 246 246 246 245 245 246 247 248 249 249 249 249 249 250 250 251 251 252 252 253 254 255 256 257 258 258 259 259 259 259 259 258 258 258 258 258 259 259 260 261 261 262 262 263 264 264 265 265 266 267 267 268 269 270 271 272 272 273 274 275 276 277 277 278 278 278 279 279 279 280 280 280 281 281 281 281 282 282 282 283 283 284 284
245 246 247 248 248 248 248 248 248 249 249 250 250 250 250 250 250 250 251 252 252 253 253 254 255 256 257 258 259 259 259 259 259 259 259 260 260 260 260 261 261 261 262 262 263 263 264 264 265 265 266 266 267 268 269 269 270 271 272 273 274 274 275 276 277 278 278 279 279 279 280 280 280 280 281 281 281 281 282 282 282 283 283 284 285
246 246 247 248 249 249 250 250 250 251 250 250 250 251 251 251 251 252 252 252 253 253 254 254 254 255 256 256 257 258 259 259 259 259 260 260 260 261 261 262 262 262 262 263 263 263 264 264 265 265 266 266 267 268 268 269 270 271 272 272 273 274 275 276 277 277 278 278 279 279 280 280 280 280 281 281 282 282 282 282 283 283 284 284 285
248 247 247 248 249 249 250 251 252 252 253 253 252 252 252 252 252 252 253 253 253 254 254 254 255 255 256 256 256 257 258 259 259 259 260 260 261 261 261 262 262 262 263 263 263 264 264 265 265 266 266 267 268 268 269 270 270 271 272 273 273 274 275 275 276 277 278 278 279 279 280 280 280 281 281 282 282 282 283 283 284 284 285 285 285
249 249 249 249 249 249 250 251 252 253 254 254 255 255 254 254 254 253 253 254 254 254 254 255 255 256 256 256 257 257 258 258 259 259 260 261 261 261 262 262 262 263 263 264 264 264 265 265 266 266 267 268 268 269 269 270 271 271 272 273 273 274 274 275 276 276 277 278 278 279 279 280 280 280 281 281 282 282 283 283 284 284 284 284 284
249 250 251 251 251 251 250 250 251 252 253 255 256 256 257 257 257 256 256 256 255 255 256 256 256 256 257 257 257 258 258 258 259 260 260 261 261 262 262 263 263 264 265 265 265 265 266 266 267 267 268 268 269 270 270 271 272 272 273 273 274 274 275 275 276 276 277 277 278 278 279 279 280 280 280 281 282 282 282 283 283 283 283 282 282
248 249 251 251 252 252 252 252 252 252 253 254 255 256 257 258 258 259 258 258 258 258 257 257 257 258 258 258 259 259 259 260 260 260 261 261 262 262 263 263 264 264 265 265 266 266 267 267 268 268 269 269 270 271 271 272 272 273 273 274 275 275 275 276 276 277 277 277 278 278 279 279 279 280 280 281 281 281 281 282 282 282 282 282 282
248 249 250 251 252 253 253 254 254 254 254 254 255 256 257 258 259 259 260 260 259 259 259 259 259 259 259 259 259 260 260 260 260 261 261 262 262 263 263 264 264 265 265 266 266 267 267 268 268 269 269 270 270 271 271 272 272 273 273 274 274 275 275 276 276 276 277 277 277 278 278 278 279 279 280 280 280 281 281 282 282 282 282 283 283
250 250 251 251 252 253 254 254 255 255 255 256 256 256 257 258 258 259 260 260 260 260 260 260 260 260 260 260 260 260 260 261 261 261 261 262 263 263 264 264 265 265 265 266 266 267 267 268 268 269 269 270 270 270 271 272 272 273 273 274 274 275 275 275 276 276 276 277 277 277 278 278 278 279 279 280 280 281 281 282 282 283 283 284 284
254 253 253 253 254 254 255 255 256 256 257 257 257 258 258 258 259 259 260 261 261 261 262 262 262 262 262 262 262 262 262 263 263 263 264 264 264 264 265 265 265 265 266 266 266 267 268 268 269 269 269 270 270 270 271 272 272 273 273 274 274 274 275 275 275 276 276 276 277 277 278 278 279 279 279 280 280 281 281 282 282 283 283 284 284
259 258 258 257 257 258 258 258 259 259 260 260 261 261 261 262 262 263 263 264 264 265 266 266 266 267 267 267 266 266 267 267 267 267 267 267 267 267 267 267 267 267 267 268 268 268 269 269 270 270 270 271 271 271 271 272 272 272 273 273 273 274 274 275 275 275 276 277 277 277 278 278 279 279 280 280 280 281 281 281 282 282 283 283 284
266 265 264 263 262 262 262 262 263 263 264 264 265 265 265 266 266 267 267 268 268 269 269 270 270 270 271 271 271 271 271 272 272 272 271 271 271 271 270 270 270 270 270 269 270 270 270 270 270 270 271 271 271 272 272 272 272 272 273 273 273 274 274 274 275 276 276 277 277 278 278 279 279 279 280 280 280 281 281 281 282 282 283 283 283
275 273 272 270 269 268 267 267 267 267 267 267 267 268 268 269 269 269 270 270 271 271 272 272 273 273 273 273 273 274 274 274 274 274 273 273 273 273 272 272 272 272 271 271 271 271 271 271 271 271 272 272 272 273 273 273 273 274 274 274 274 275 275 275 276 277 277 277 278 278 278 279 279 280 280 280 281 281 282 282 283 283 283 283 283
279 278 277 276 275 274 273 272 271 271 271 270 270 270 270 271 271 271 272 272 272 273 273 273 274 274 274 274 274 274 275 275 275 275 274 274 274 273 273 272 272 272 272 272 272 272 272 272 272 272 273 273 274 274 274 274 275 275 275 275 276 276 276 277 277 278 278 278 278 279 279 279 280 280 280 281 281 282 283 283 283 283 283 283 284
283 282 280 278 277 276 275 275 274 274 274 273 273 273 273 273 273 273 273 273 274 274 273 274 274 274 275 275 275 274 274 275 275 275 275 275 274 274 273 273 272 272 272 272 272 272 272 272 273 273 273 274 274 274 274 275 275 275 276 276 276 277 277 278 278 278 279 279 279 280 280 280 281 281 281 282 283 284 284 284 284 284 284 284 284
291 288 285 283 281 279 277 276 275 275 275 274 274 274 274 274 274 274 274 274 274 274 274 274 274 274 274 274 274 274 274 274 275 275 275 275 275 274 274 273 273 273 273 273 273 273 273 273 273 274 274 274 275 275 275 275 276 276 276 277 277 278 279 279 279 279 279 280 280 281 281 282 282 282 283 284 285 285 285 284 284 284 285 285 285
302 298 293 289 286 283 280 278 276 275 275 274 274 274 274 274 274 274 274 273 273 273 274 274 273 273 273 274 274 274 274 274 274 274 274 274 274 273 273 273 273 273 273 274 274 274 274 274 274 274 275 275 275 276 276 277 277 278 278 278 279 279 280 280 280 280 281 281 281 282 282 283 283 284 285 286 286 285 285 285 286 286 286 287 287
311 308 304 299 294 289 284 281 278 276 275 274 274 274 274 274 275 275 274 274 274 274 274 274 273 273 273 274 274 275 275 275 275 274 274 274 274 274 273 273 273 273 273 274 274 274 275 275 275 276 276 276 276 276 276 277 278 279 279 279 280 280 281 281 281 281 281 282 282 283 284 284 285 286 286 286 285 285 285 286 287 287 287 288 287
316 314 311 307 303 298 292 287 283 279 277 275 274 274 274 275 275 275 275 275 276 276 275 275 275 276 276 276 277 277 276 276 277 277 277 276 276 276 275 274 274 274 274 274 274 274 275 275 275 276 276 276 276 277 277 278 278 279 280 280 281 282 282 282 282 282 282 283 283 284 285 285 286 286 285 285 285 286 286 287 288 288 288 288 288
320 318 315 312 309 304 300 295 290 285 281 278 276 275 275 275 274 274 275 276 277 277 277 277 278 279 279 279 280 280 280 281 281 281 281 281 280 278 277 276 276 275 275 275 275 275 275 275 275 276 276 276 277 277 278 278 278 279 280 281 282 282 282 282 282 283 283 283 284 285 285 285 285 285 286 286 287 288 288 289 289 289 289 289 289
324 322 319 316 312 308 304 300 296 292 287 283 280 278 277 275 274 274 275 276 277 277 278 279 279 280 280 280 281 282 282 283 283 283 282 282 281 280 279 278 277 276 275 275 275 275 275 275 276 276 276 276 276 276 277 277 278 279 280 281 281 281 281 282 282 283 284 285 286 286 286 286 287 288 289 289 290 290 290 290 290 291 291 291 292
328 327 324 320 316 312 306 302 299 295 291 288 285 282 280 278 277 277 277 278 279 280 281 282 282 283 284 284 284 284 283 282 281 280 279 279 279 279 279 279 278 278 277 276 275 275 275 275 275 275 274 274 274 274 275 276 278 279 279 280 280 281 282 283 284 285 287 288 288 288 289 290 291 291 291 291 291 291 291 291 292 292 293 293 293
331 330 328 324 320 315 310 305 300 295 292 289 287 285 284 282 281 280 280 282 283 285 286 286 287 288 289 288 287 286 285 285 284 283 282 282 281 280 280 279 279 278 278 277 276 276 276 276 276 275 274 273 274 274 275 276 277 279 280 281 282 284 285 286 287 289 290 290 290 291 292 293 293 292 292 292 292 293 292 293 293 293 294 294 295
334 334 332 328 324 319 314 308 303 298 294 290 288 286 286 285 284 283 284 285 286 287 288 290 292 293 292 291 290 290 289 289 288 288 287 286 285 284 283 282 281 279 278 276 276 276 276 276 275 274 274 275 276 277 277 278 279 280 281 283 284 286 287 288 289 290 290 291 292 293 293 293 293 293 293 293 293 294 294 295 295 296 297 298 298
336 336 334 331 327 323 317 311 305 301 298 294 291 289 287 285 285 286 287 288 289 290 293 296 298 297 296 295 295 294 293 292 291 291 290 289 288 287 286 285 283 282 280 278 277 275 274 273 273 273 274 275 276 277 278 279 280 282 283 284 285 286 287 288 290 291 292 293 293 293 293 293 293 293 294 294 295 296 298 299 300 301 302 301 301
337 337 335 333 330 326 321 314 309 304 301 297 294 292 290 290 290 291 292 293 295 298 300 302 301 299 298 298 298 297 296 295 295 294 293 292 292 291 289 288 286 284 282 280 278 276 274 273 272 273 273 274 276 277 279 280 281 283 283 284 285 287 288 290 291 292 293 293 293 292 292 293 294 296 298 299 301 302 303 304 304 304 303 303 302
338 337 336 334 332 329 325 318 313 308 304 300 296 295 295 296 297 298 298 299 300 303 305 304 304 303 302 303 303 303 302 300 298 297 296 295 294 293 292 291 289 287 284 281 279 277 276 275 275 275 276 277 278 279 279 280 281 281 283 284 286 288 290 291 292 293 293 292 293 294 296 298 301 302 303 304 305 306 306 306 305 305 304 303 303
341 339 338 336 334 332 328 323 317 312 307 304 301 299 299 300 302 303 302 303 304 307 308 309 309 308 308 309 309 309 307 303 300 298 297 296 296 296 295 293 292 289 286 282 279 277 277 277 277 278 278 279 279 279 279 279 280 282 284 286 288 290 291 292 292 293 294 296 298 301 303 304 305 306 307 308 308 308 307 307 306 305 304 303 303
344 342 340 338 336 334 331 327 322 317 311 307 304 303 303 303 303 304 304 305 308 310 311 311 312 313 314 315 315 314 312 309 306 304 304 304 304 304 302 299 296 293 289 285 282 279 277 277 278 278 279 279 280 280 280 281 283 284 286 288 290 292 293 293 294 296 300 304 306 307 307 308 310 310 311 311 310 309 309 308 307 306 305 304 304
345 344 343 341 340 337 334 330 326 322 316 311 307 305 305 304 304 305 305 306 309 311 313 314 316 318 320 321 321 320 318 316 314 314 314 315 315 314 311 309 305 301 297 294 290 287 285 284 283 282 282 282 282 282 283 284 285 287 289 292 293 294 295 297 300 304 307 309 310 311 312 313 314 314 313 313 312 311 310 309 308 307 306 306 305
345 346 346 345 343 341 337 332 328 324 320 315 311 308 306 305 305 305 305 306 309 311 314 317 320 322 324 325 325 325 323 322 321 321 322 322 321 320 318 316 314 310 307 304 301 297 294 290 287 286 285 284 284 284 285 287 289 291 293 294 295 297 300 304 307 309 311 313 315 316 317 317 317 316 316 315 314 313 312 311 309 308 307 307 307
345 346 348 348 347 345 341 336 330 325 320 316 311 308 306 305 304 304 304 305 307 310 314 317 320 323 326 327 327 327 326 326 325 325 325 325 324 323 322 320 318 316 313 309 305 301 297 293 291 289 288 287 287 287 289 292 293 293 294 296 300 303 305 308 310 313 316 319 320 320 320 319 319 318 317 316 315 314 313 311 310 310 310 310 310
345 345 347 349 349 348 345 341 335 328 322 316 311 306 304 303 302 302 302 302 304 307 311 314 318 321 325 327 327 327 328 329 329 329 329 329 329 329 327 324 323 322 320 317 314 309 306 303 301 298 298 297 297 298 298 296 295 296 299 302 304 306 309 313 317 320 321 321 321 321 320 319 319 319 318 318 318 317 316 315 314 313 313 313 313
345 344 345 346 348 349 347 344 339 333 326 319 312 306 302 300 299 299 299 300 301 304 307 310 314 317 321 324 325 326 327 329 331 333 335 337 338 339 337 335 335 335 335 336 336 335 334 334 335 334 330 322 313 305 300 299 300 302 305 306 309 312 316 319 321 321 320 319 319 319 319 320 321 322 322 323 323 322 321 320 318 316 315 314 314
345 345 344 344 345 346 347 345 343 339 334 327 318 310 303 298 296 296 296 297 298 300 302 306 309 312 316 320 323 324 326 328 330 333 338 343 348 351 353 353 353 356 0 4 6 8 10 11 7 354 336 320 310 306 305 306 308 310 312 315 318 321 322 322 320 319 318 318 318 319 320 322 324 326 327 328 328 327 325 323 320 318 317 315 315
345 344 344 344 344 344 343 343 343 342 339 334 327 318 309 301 296 293 293 293 294 296 298 301 304 307 310 314 318 321 323 325 328 330 335 342 350 357 1 4 7 10 14 16 15 12 10 1 345 330 319 314 312 312 314 316 317 320 323 326 327 326 325 323 322 321 320 320 320 322 323 325 327 329 331 331 331 330 328 326 324 321 319 317 316
343 343 343 342 342 341 341 341 341 341 339 337 332 327 319 310 302 295 291 290 290 291 293 296 298 301 304 307 311 315 318 321 325 328 329 333 341 349 355 0 4 5 4 359 353 347 339 331 324 319 318 319 320 322 324 326 329 332 333 333 332 331 330 328 328 327 326 326 326 326 327 328 330 331 333 334 334 333 332 329 326 323 320 319 318
340 341 341 340 340 339 339 340 339 338 337 336 334 331 326 319 310 302 294 289 287 287 288 290 292 295 297 300 303 307 311 314 317 320 322 324 327 330 335 339 341 338 332 326 322 320 318 317 319 321 323 326 328 329 332 335 337 337 337 336 335 334 334 334 334 334 334 333 332 332 331 331 332 333 334 335 336 335 334 331 328 325 323 322 321
338 338 338 338 338 337 337 336 336 335 335 335 334 331 328 323 317 310 302 293 287 284 283 284 286 288 291 293 295 298 301 305 307 309 311 313 314 315 314 313 309 306 302 300 298 300 305 312 318 322 324 327 330 332 335 337 337 336 336 335 335 335 335 336 337 338 339 339 338 337 336 335 335 335 335 336 337 337 335 333 331 328 325 325 324
335 335 335 335 335 334 333 333 333 333 333 333 332 330 328 325 320 314 308 300 293 286 282 280 280 282 285 288 289 291 293 296 298 299 300 301 302 302 299 295 289 284 280 278 282 291 302 310 315 319 322 325 329 332 334 335 335 335 335 335 335 336 337 338 339 340 341 342 342 342 341 340 338 337 337 337 338 338 337 335 333 330 328 327 326
333 333 332 332 332 332 331 332 332 332 331 331 330 328 327 324 321 316 311 305 299 292 286 281 277 277 279 282 284 286 287 288 290 291 291 291 292 290 288 283 277 271 269 272 280 291 299 304 309 314 319 324 327 329 331 332 333 334 334 335 336 336 337 339 340 341 342 342 343 343 343 343 341 340 339 338 338 338 338 337 335 333 330 329 329
330 330 330 330 330 330 331 331 331 331 330 330 329 328 326 323 320 317 313 309 304 298 292 286 280 276 274 276 279 281 282 282 283 284 284 283 282 279 276 271 266 265 268 273 279 286 291 296 302 309 315 319 322 325 327 328 329 331 332 333 334 336 337 338 339 340 341 342 342 343 343 343 343 342 340 339 339 339 339 338 337 334 332 331 331
328 328 328 328 328 329 330 331 331 330 330 329 329 328 327 324 321 317 314 311 308 303 297 291 284 278 273 272 273 275 277 278 277 277 277 276 274 270 265 261 260 263 270 274 276 277 281 288 295 302 308 313 316 319 322 324 326 328 330 332 333 334 336 337 338 339 340 340 341 342 342 343 343 342 341 340 339 339 339 339 338 336 334 333 333
327 327 326 326 326 327 329 329 330 330 330 330 330 329 328 326 322 318 314 312 310 307 302 296 289 282 275 270 269 270 272 273 273 272 271 270 268 263 259 256 258 263 268 272 272 272 275 281 287 294 300 305 310 314 318 321 324 327 329 330 332 333 334 335 336 337 338 339 340 341 341 341 342 342 342 341 340 340 340 340 339 337 335 334 334
326 326 325 325 325 326 327 328 329 329 330 330 330 329 328 327 324 320 316 313 311 309 305 299 293 286 279 272 267 265 266 268 269 268 267 266 264 260 256 255 258 262 266 269 270 271 273 277 282 288 293 299 304 309 314 318 321 324 326 328 330 331 332 334 335 336 337 338 338 339 340 340 341 341 341 341 340 340 340 340 339 338 336 335 335
326 326 325 324 324 325 326 327 328 329 329 329 330 330 329 328 326 323 319 315 313 311 307 302 296 291 283 275 269 264 263 263 265 266 265 263 261 258 256 255 256 259 263 266 268 271 273 276 280 284 289 294 299 304 309 313 317 321 324 326 327 329 330 332 333 334 335 336 337 338 339 339 340 340 341 341 340 340 340 340 339 338 337 336 336
326 326 325 325 324 324 325 327 328 329 329 329 330 330 330 329 327 325 322 319 315 313 309 304 298 294 287 279 272 266 262 261 261 262 263 262 260 258 256 255 256 258 261 264 266 269 272 275 279 283 287 291 296 300 305 309 314 318 322 324 326 327 328 330 331 332 334 335 336 337 337 338 339 339 340 340 340 340 340 340 339 339 338 337 337
325 326 326 325 324 324 325 327 328 329 329 329 330 330 330 330 328 325 323 320 318 315 311 305 300 295 290 283 275 269 264 260 259 259 260 260 260 258 257 256 256 257 259 261 264 267 271 274 277 281 285 289 293 297 302 307 311 316 320 323 325 326 327 328 329 330 331 333 334 336 336 337 337 338 339 340 340 340 340 340 340 339 338 338 338
Height
10325 10328 10331 10333 10335 10337 10339 10342 10345 10348 10350 10352 10353 10354 10355 10356 10357 10358 10359 10359 10360 10362 10363 10365 10368 10369 10371 10374 10376 10378 10380 10381 10383 10385 10386 10387 10387 10388 10388 10389 10392 10393 10393 10393 10392 10391 10392 10392 10392 10391 10390 10391 10390 10388 10387 10385 10383 10382 10379 10378 10377 10377 10376 10377 10382 10385 10382 10380 10379 10377 10375 10372 10368 10363 10358 10355 10353 10351 10350 10348 10345 10341 10337 10334 10329
10317 10320 10322 10325 10327 10329 10331 10333 10335 10338 10340 10342 10344 10345 10347 10348 10349 10349 10350 10350 10352 10354 10354 10356 10357 10359 10360 10361 10364 10366 10369 10371 10373 10375 10376 10376 10376 10377 10377 10378 10380 10382 10382 10382 10381 10380 10380 10381 10380 10379 10378 10378 10378 10376 10375 10373 10372 10371 10368 10366 10365 10364 10362 10363 10366 10369 10368 10366 10364 10363 10361 10358 10356 10353 10347 10343 10340 10337 10336 10334 10331 10328 10324 10320 10315
10310 10312 10314 10316 10319 10321 10323 10324 10326 10328 10330 10332 10334 10336 10337 10339 10340 10341 10341 10342 10343 10344 10344 10345 10347 10348 10349 10350 10352 10354 10357 10359 10361 10363 10364 10364 10365 10365 10365 10366 10368 10369 10370 10370 10369 10369 10370 10370 10369 10367 10366 10366 10366 10363 10362 10361 10359 10359 10357 10355 10353 10352 10349 10348 10350 10353 10352 10350 10349 10349 10346 10343 10342 10340 10336 10332 10329 10326 10323 10320 10318 10314 10310 10306 10302
10303 10304 10306 10308 10310 10312 10314 10316 10317 10319 10321 10323 10324 10326 10327 10329 10330 10331 10331 10332 10333 10334 10335 10335 10336 10338 10339 10340 10341 10342 10344 10346 10348 10350 10351 10351 10352 10353 10354 10355 10357 10357 10358 10358 10357 10357 10358 10359 10358 10355 10354 10354 10354 10351 10350 10349 10347 10346 10345 10343 10342 10340 10336 10334 10335 10336 10335 10335 10335 10334 10332 10329 10327 10325 10322 10320 10317 10314 10311 10308 10304 10301 10296 10292 10289
10296 10297 10299 10300 10302 10304 10306 10307 10309 10311 10312 10314 10315 10316 10317 10319 10320 10321 10322 10322 10324 10325 10325 10326 10327 10328 10328 10329 10330 10331 10332 10334 10335 10337 10337 10338 10340 10341 10343 10344 10345 10345 10346 10346 10345 10345 10345 10345 10344 10342 10342 10342 10341 10340 10338 10337 10336 10335 10334 10332 10330 10328 10325 10322 10321 10321 10320 10320 10320 10319 10318 10315 10313 10310 10307 10305 10303 10300 10297 10293 10290 10286 10283 10279 10276
10289 10291 10292 10294 10295 10296 10297 10299 10300 10302 10303 10305 10306 10307 10308 10309 10310 10311 10312 10313 10314 10315 10316 10317 10317 10318 10318 10319 10319 10320 10320 10322 10323 10324 10325 10327 10329 10330 10331 10331 10332 10332 10333 10333 10332 10332 10331 10331 10331 10330 10330 10330 10329 10328 10327 10326 10324 10323 10322 10321 10318 10316 10314 10312 10309 10307 10306 10305 10304 10304 10303 10300 10297 10295 10292 10288 10287 10285 10281 10278 10275 10272 10269 10266 10262
10283 10284 10286 10287 10288 10289 10290 10291 10292 10293 10294 10295 10296 10297 10299 10300 10301 10302 10303 10304 10305 10306 10306 10307 10307 10308 10308 10309 10309 10310 10310 10311 10311 10312 10314 10315 10317 10318 10318 10319 10319 10319 10319 10319 10319 10319 10318 10318 10318 10317 10317 10317 10317 10315 10314 10314 10313 10312 10310 10309 10307 10304 10302 10300 10297 10295 10293 10291 10290 10289 10287 10285 10282 10280 10277 10273 10271 10269 10266 10263 10261 10258 10254 10252 10248
10277 10278 10279 10280 10281 10282 10283 10283 10284 10285 10285 10286 10287 10288 10289 10290 10291 10292 10293 10294 10295 10296 10296 10297 10297 10298 10298 10299 10300 10300 10301 10300 10300 10301 10303 10305 10306 10306 10306 10307 10306 10306 10306 10306 10307 10306 10305 10305 10305 10305 10305 10304 10304 10303 10302 10301 10301 10300 10298 10296 10294 10293 10291 10288 10285 10283 10280 10278 10276 10274 10272 10270 10268 10265 10262 10259 10257 10255 10252 10249 10248 10244 10240 10238 10234
10272 10272 10272 10273 10274 10275 10275 10276 10277 10277 10278 10278 10278 10279 10280 10281 10282 10283 10284 10285 10285 10286 10287 10287 10288 10288 10288 10289 10289 10290 10290 10290 10290 10292 10293 10294 10295 10295 10295 10295 10295 10295 10294 10294 10293 10293 10292 10292 10293 10293 10293 10292 10291 10290 10289 10288 10288 10287 10284 10282 10281 10280 10278 10276 10273 10270 10267 10265 10263 10261 10259 10257 10254 10251 10249 10246 10244 10243 10239 10236 10234 10230 10227 10224 10219
10266 10266 10266 10266 10267 10267 10268 10268 10269 10269 10270 10270 10270 10270 10271 10271 10272 10273 10274 10274 10275 10276 10276 10277 10278 10278 10278 10279 10279 10279 10279 10279 10280 10281 10282 10283 10284 10285 10285 10285 10284 10284 10283 10281 10280 10279 10279 10280 10280 10280 10280 10280 10279 10278 10277 10276 10275 10274 10272 10270 10268 10267 10265 10262 10260 10257 10254 10252 10250 10247 10246 10244 10241 10238 10236 10234 10231 10229 10226 10223 10220 10216 10212 10210 10205
10260 10260 10260 10260 10260 10260 10260 10260 10261 10261 10261 10262 10262 10262 10262 10262 10263 10263 10264 10264 10265 10265 10265 10266 10266 10267 10267 10268 10268 10268 10267 10267 10268 10270 10271 10271 10273 10274 10275 10274 10273 10272 10271 10269 10267 10266 10267 10267 10267 10267 10267 10267 10267 10266 10264 10262 10261 10261 10261 10258 10255 10253 10251 10249 10246 10243 10241 10239 10237 10235 10233 10231 10228 10226 10224 10221 10218 10215 10213 10209 10205 10201 10197 10195 10192
10255 10255 10255 10254 10254 10254 10253 10253 10253 10253 10253 10254 10254 10253 10253 10254 10254 10254 10254 10254 10254 10254 10254 10255 10255 10256 10256 10256 10256 10256 10256 10255 10257 10259 10260 10260 10262 10263 10263 10262 10261 10259 10257 10256 10255 10254 10254 10255 10254 10254 10253 10253 10253 10253 10251 10250 10249 10249 10248 10245 10242 10239 10237 10235 10234 10231 10228 10226 10224 10222 10220 10218 10216 10214 10211 10208 10205 10201 10199 10195 10191 10187 10183 10180 10176
10250 10250 10249 10249 10248 10247 10247 10247 10246 10246 10246 10246 10246 10245 10245 10245 10245 10245 10245 10245 10244 10244 10244 10244 10245 10245 10246 10246 10246 10246 10245 10244 10246 10248 10249 10250 10251 10252 10251 10250 10249 10246 10244 10243 10242 10242 10242 10242 10241 10240 10239 10239 10239 10239 10239 10238 10237 10236 10234 10231 10229 10226 10224 10222 10220 10218 10215 10213 10212 10210 10207 10205 10203 10201 10197 10193 10191 10188 10185 10181 10177 10173 10170 10165 10162
10245 10245 10244 10244 10243 10242 10241 10241 10240 10240 10239 10239 10238 10238 10238 10237 10237 10237 10237 10236 10236 10236 10236 10236 10236 10236 10236 10237 10237 10236 10235 10235 10237 10238 10239 10240 10240 10241 10241 10238 10236 10233 10231 10230 10230 10230 10230 10229 10229 10227 10225 10225 10225 10226 10226 10225 10224 10223 10220 10218 10215 10213 10211 10209 10207 10204 10202 10201 10199 10197 10194 10191 10189 10187 10182 10179 10177 10173 10170 10167 10162 10159 10156 10152 10148
10241 10240 10239 10238 10237 10237 10236 10235 10234 10233 10233 10232 10232 10231 10230 10230 10229 10229 10229 10229 10228 10228 10228 10227 10227 10227 10227 10227 10227 10226 10225 10225 10226 10227 10228 10229 10230 10231 10230 10226 10223 10220 10219 10218 10218 10218 10216 10216 10216 10215 10213 10211 10211 10213 10213 10211 10210 10209 10206 10204 10202 10200 10198 10195 10194 10193 10190 10188 10186 10183 10181 10178 10175 10173 10169 10165 10162 10159 10155 10153 10149 10146 10143 10138 10133
10235 10234 10233 10232 10231 10230 10229 10228 10227 10226 10226 10225 10224 10224 10223 10223 10222 10222 10222 10221 10220 10220 10219 10218 10217 10217 10217 10217 10217 10216 10214 10214 10215 10215 10216 10216 10217 10218 10218 10215 10210 10206 10205 10205 10205 10204 10203 10202 10203 10203 10201 10199 10198 10200 10200 10198 10196 10195 10192 10191 10189 10186 10184 10182 10182 10181 10178 10174 10172 10170 10167 10164 10161 10159 10155 10151 10148 10145 10142 10140 10136 10133 10129 10124 10119
10229 10228 10227 10226 10225 10224 10223 10221 10220 10219 10218 10217 10217 10216 10215 10215 10214 10214 10214 10213 10212 10212 10211 10210 10208 10207 10207 10206 10206 10205 10203 10202 10203 10203 10204 10205 10205 10205 10205 10203 10198 10193 10192 10192 10192 10191 10190 10189 10190 10191 10189 10188 10187 10187 10187 10185 10183 10182 10179 10178 10176 10173 10171 10170 10170 10169 10165 10161 10159 10156 10154 10152 10149 10146 10142 10138 10136 10133 10130 10127 10123 10119 10115 10110 10106
10223 10222 10220 10219 10217 10216 10215 10213 10212 10211 10210 10209 10208 10207 10207 10207 10206 10206 10206 10204 10203 10202 10202 10202 10199 10198 10197 10196 10196 10195 10193 10192 10192 10192 10192 10193 10194 10193 10192 10190 10187 10182 10180 10180 10180 10179 10178 10179 10179 10179 10179 10178 10177 10175 10173 10172 10171 10170 10168 10166 10164 10162 10160 10159 10158 10156 10152 10149 10147 10144 10142 10140 10136 10133 10130 10127 10124 10120 10117 10113 10109 10105 10101 10097 10095
10218 10216 10214 10212 10210 10208 10207 10205 10204 10203 10201 10200 10200 10199 10198 10198 10197 10197 10196 10196 10194 10193 10193 10193 10191 10188 10187 10186 10185 10184 10183 10182 10182 10182 10182 10182 10182 10182 10180 10178 10176 10172 10169 10168 10168 10167 10167 10167 10168 10168 10168 10168 10166 10164 10162 10160 10159 10158 10156 10155 10153 10151 10150 10148 10146 10143 10140 10138 10135 10132 10130 10127 10124 10121 10118 10115 10112 10107 10102 10099 10095 10092 10089 10085 10082
10212 10210 10208 10206 10204 10202 10200 10198 10196 10195 10194 10192 10191 10191 10190 10189 10189 10188 10188 10187 10186 10185 10184 10184 10182 10180 10178 10177 10176 10175 10174 10173 10172 10172 10172 10172 10172 10171 10170 10167 10165 10162 10160 10158 10157 10156 10156 10156 10157 10158 10158 10157 10155 10153 10151 10149 10147 10146 10145 10144 10142 10141 10139 10136 10134 10132 10129 10127 10124 10121 10119 10115 10112 10110 10107 10104 10099 10094 10089 10086 10082 10080 10077 10073 10070
10205 10203 10201 10199 10197 10195 10193 10191 10189 10187 10186 10185 10184 10183 10183 10182 10181 10180 10179 10178 10178 10177 10176 10175 10173 10171 10170 10169 10167 10166 10164 10164 10163 10162 10162 10162 10161 10161 10160 10157 10155 10153 10151 10148 10146 10146 10145 10144 10145 10146 10147 10147 10144 10142 10141 10139 10138 10136 10135 10134 10132 10131 10128 10125 10123 10121 10119 10116 10114 10111 10107 10104 10102 10099 10095 10091 10087 10082 10078 10075 10071 10069 10066 10062 10060
10200 10197 10194 10191 10189 10186 10185 10183 10182 10180 10179 10178 10177 10176 10175 10175 10174 10173 10171 10170 10170 10170 10168 10167 10165 10163 10162 10161 10158 10156 10155 10155 10154 10153 10153 10152 10152 10151 10149 10147 10145 10143 10142 10139 10136 10136 10135 10134 10135 10136 10137 10136 10134 10132 10131 10130 10128 10127 10126 10125 10123 10120 10118 10115 10112 10111 10109 10106 10103 10100 10098 10095 10092 10088 10084 10080 10076 10072 10069 10065 10061 10058 10055 10052 10050
10195 10191 10188 10185 10181 10179 10176 10175 10174 10173 10171 10170 10169 10168 10168 10167 10166 10165 10164 10163 10162 10162 10161 10159 10157 10156 10154 10153 10151 10148 10147 10146 10146 10145 10143 10142 10141 10140 10139 10137 10135 10134 10132 10129 10127 10126 10125 10124 10125 10127 10127 10125 10123 10122 10121 10121 10119 10118 10117 10116 10113 10111 10108 10105 10103 10101 10099 10096 10094 10091 10088 10084 10081 10077 10073 10070 10066 10063 10060 10056 10052 10049 10046 10042 10040
10190 10186 10183 10179 10176 10173 10170 10168 10166 10165 10164 10163 10162 10161 10160 10159 10159 10158 10157 10156 10156 10155 10154 10152 10151 10149 10147 10145 10143 10141 10140 10138 10137 10136 10134 10132 10130 10129 10127 10126 10124 10123 10121 10119 10117 10116 10115 10115 10116 10117 10117 10115 10114 10113 10112 10112 10110 10109 10108 10107 10104 10101 10099 10097 10095 10092 10090 10087 10085 10081 10078 10074 10071 10068 10064 10060 10057 10054 10051 10048 10044 10040 10037 10034 10031
10184 10180 10177 10174 10170 10167 10164 10162 10161 10159 10158 10157 10156 10154 10153 10153 10152 10151 10151 10150 10149 10148 10147 10146 10144 10142 10140 10138 10136 10133 10132 10130 10128 10126 10124 10122 10120 10119 10117 10115 10113 10112 10111 10109 10107 10106 10105 10106 10107 10107 10107 10105 10104 10104 10104 10103 10102 10101 10100 10098 10095 10093 10091 10088 10086 10084 10081 10078 10075 10072 10069 10066 10063 10059 10055 10052 10049 10046 10043 10040 10037 10033 10030 10027 10024
10178 10175 10171 10168 10165 10162 10159 10157 10155 10154 10153 10151 10150 10148 10148 10147 10146 10146 10145 10144 10143 10142 10141 10139 10137 10135 10133 10130 10128 10125 10123 10121 10118 10116 10115 10113 10111 10109 10108 10106 10104 10102 10100 10099 10097 10096 10096 10097 10098 10098 10097 10096 10095 10095 10095 10095 10094 10092 10091 10089 10087 10085 10083 10080 10077 10075 10072 10069 10066 10064 10061 10058 10055 10051 10048 10044 10041 10039 10036 10033 10030 10026 10023 10020 10017
10173 10170 10166 10163 10160 10157 10155 10152 10150 10149 10148 10147 10145 10144 10143 10142 10141 10141 10140 10139 10138 10137 10135 10133 10131 10129 10126 10123 10120 10118 10115 10112 10110 10107 10105 10103 10101 10099 10097 10095 10094 10092 10090 10088 10088 10087 10087 10088 10088 10087 10087 10087 10086 10086 10086 10086 10085 10083 10082 10081 10079 10077 10074 10071 10069 10067 10064 10062 10059 10056 10053 10050 10048 10045 10041 10038 10035 10032 10029 10027 10023 10020 10017 10013 10010
10169 10165 10162 10159 10156 10153 10151 10148 10146 10145 10144 10142 10141 10139 10139 10138 10137 10136 10136 10134 10133 10132 10130 10128 10126 10123 10120 10116 10113 10111 10108 10104 10101 10098 10095 10093 10090 10088 10086 10084 10082 10081 10079 10078 10078 10078 10078 10078 10078 10078 10078 10078 10078 10078 10078 10077 10077 10075 10074 10073 10071 10069 10066 10064 10062 10060 10057 10055 10052 10050 10047 10044 10042 10039 10036 10033 10030 10027 10024 10021 10018 10014 10011 10007 10004
10165 10161 10158 10155 10152 10150 10147 10145 10142 10141 10139 10138 10137 10135 10134 10133 10133 10132 10131 10129 10128 10126 10125 10123 10120 10117 10114 10111 10107 10104 10100 10097 10093 10090 10086 10083 10081 10078 10076 10074 10073 10071 10070 10069 10069 10069 10068 10068 10069 10069 10070 10070 10070 10070 10070 10070 10069 10068 10067 10065 10063 10062 10060 10058 10056 10053 10051 10049 10046 10044 10042 10039 10037 10034 10031 10028 10025 10022 10019 10015 10012 10008 10005 10000 9997
10161 10158 10154 10151 10148 10146 10144 10141 10139 10137 10135 10134 10133 10132 10130 10129 10128 10127 10126 10124 10123 10121 10120 10118 10115 10112 10108 10105 10101 10098 10094 10090 10086 10082 10079 10076 10073 10070 10068 10065 10064 10063 10062 10061 10061 10060 10060 10060 10061 10062 10062 10063 10063 10063 10063 10062 10061 10060 10059 10058 10057 10056 10054 10052 10050 10048 10046 10044 10041 10039 10037 10035 10032 10030 10026 10023 10020 10017 10013 10010 10006 10002 9998 9994 9990
10160 10155 10152 10148 10145 10142 10140 10138 10136 10134 10132 10130 10129 10128 10127 10125 10124 10122 10121 10120 10118 10117 10115 10112 10109 10106 10102 10099 10096 10092 10088 10084 10080 10077 10073 10070 10067 10064 10061 10059 10057 10056 10055 10054 10054 10053 10054 10054 10054 10055 10055 10056 10056 10056 10056 10055 10055 10054 10054 10053 10051 10050 10048 10046 10045 10043 10041 10039 10037 10035 10033 10030 10028 10025 10021 10018 10015 10011 10008 10004 10000 9996 9992 9987 9983
10161 10155 10150 10146 10143 10140 10137 10135 10133 10131 10129 10127 10125 10124 10123 10121 10120 10118 10117 10115 10113 10111 10110 10107 10104 10101 10097 10094 10090 10086 10083 10079 10075 10071 10068 10065 10061 10059 10056 10054 10052 10050 10049 10048 10048 10047 10048 10048 10048 10049 10049 10050 10050 10050 10050 10050 10050 10049 10049 10048 10046 10045 10044 10042 10041 10039 10037 10036 10033 10031 10029 10026 10023 10020 10016 10012 10009 10005 10001 9998 9994 9989 9985 9980 9976
10161 10156 10151 10146 10141 10138 10135 10132 10130 10128 10126 10124 10122 10120 10119 10117 10115 10114 10112 10110 10108 10107 10105 10102 10099 10096 10092 10089 10085 10081 10078 10074 10070 10066 10063 10060 10057 10054 10052 10049 10047 10046 10044 10044 10043 10043 10043 10044 10044 10044 10045 10045 10046 10046 10045 10045 10045 10045 10044 10043 10042 10041 10040 10039 10037 10036 10034 10032 10029 10027 10024 10021 10018 10014 10011 10007 10003 9999 9995 9991 9986 9982 9978 9973 9969
10160 10156 10151 10146 10141 10137 10133 10130 10127 10125 10123 10121 10119 10117 10115 10113 10111 10109 10107 10105 10104 10102 10100 10097 10094 10091 10088 10084 10081 10077 10074 10070 10067 10063 10059 10056 10054 10051 10049 10046 10044 10043 10041 10041 10040 10040 10040 10040 10040 10041 10041 10042 10042 10042 10042 10042 10041 10041 10041 10040 10039 10038 10037 10035 10034 10032 10030 10028 10025 10022 10019 10016 10013 10009 10005 10002 9998 9993 9989 9984 9979 9975 9970 9966 9961
10158 10154 10150 10145 10140 10136 10132 10129 10126 10122 10120 10118 10116 10114 10112 10110 10108 10106 10104 10101 10099 10097 10095 10093 10090 10088 10084 10081 10078 10075 10071 10068 10064 10060 10057 10055 10052 10049 10047 10045 10043 10041 10040 10039 10038 10038 10038 10038 10038 10038 10039 10039 10039 10039 10039 10039 10039 10038 10038 10037 10036 10035 10034 10032 10030 10028 10026 10023 10021 10018 10015 10012 10008 10004 10000 9996 9992 9988 9983 9978 9973 9968 9964 9959 9955
10156 10152 10148 10144 10140 10136 10131 10128 10125 10121 10118 10115 10113 10111 10109 10107 10105 10103 10100 10098 10096 10094 10092 10089 10087 10084 10082 10078 10075 10072 10069 10066 10062 10059 10056 10053 10050 10048 10046 10044 10042 10040 10039 10038 10037 10037 10037 10036 10036 10037 10037 10037 10037 10037 10037 10037 10036 10036 10035 10035 10033 10032 10030 10029 10026 10024 10022 10019 10017 10014 10011 10007 10004 10000 9996 9991 9987 9982 9977 9972 9967 9962 9957 9953 9949
10155 10151 10147 10143 10139 10135 10131 10127 10123 10120 10116 10113 10110 10108 10106 10104 10102 10100 10097 10095 10093 10091 10088 10086 10084 10081 10079 10076 10073 10070 10067 10064 10061 10058 10055 10052 10049 10047 10045 10043 10041 10040 10038 10037 10036 10036 10036 10036 10036 10036 10036 10036 10035 10035 10035 10035 10034 10034 10033 10032 10030 10029 10027 10025 10023 10021 10018 10016 10013 10010 10007 10003 9999 9995 9991 9986 9981 9976 9971 9966 9961 9956 9951 9947 9943
10153 10149 10145 10141 10137 10133 10129 10125 10121 10118 10114 10111 10108 10105 10102 10100 10098 10096 10094 10092 10090 10087 10085 10083 10080 10078 10075 10073 10071 10068 10065 10063 10060 10057 10054 10051 10049 10047 10045 10043 10041 10040 10038 10037 10037 10036 10036 10035 10035 10035 10035 10035 10034 10034 10034 10033 10032 10031 10030 10029 10027 10025 10023 10021 10019 10017 10015 10012 10009 10006 10002 9998 9994 9990 9985 9981 9976 9970 9965 9960 9955 9951 9946 9942 9937
10150 10146 10142 10138 10134 10131 10127 10123 10119 10115 10112 10108 10105 10102 10099 10096 10093 10091 10089 10087 10085 10083 10081 10079 10077 10074 10072 10069 10067 10066 10063 10061 10058 10055 10053 10050 10048 10046 10044 10043 10041 10040 10039 10038 10037 10036 10036 10035 10035 10034 10034 10033 10033 10032 10032 10031 10030 10029 10027 10026 10024 10022 10020 10018 10016 10014 10011 10008 10005 10001 9998 9994 9989 9985 9980 9975 9970 9965 9960 9955 9950 9945 9941 9936 9932
10147 10144 10140 10136 10132 10128 10124 10120 10116 10113 10109 10105 10101 10098 10095 10092 10089 10086 10083 10081 10080 10078 10077 10075 10073 10071 10068 10066 10064 10062 10060 10058 10056 10054 10051 10049 10047 10045 10044 10042 10041 10040 10039 10038 10037 10036 10035 10034 10034 10033 10033 10032 10031 10030 10029 10028 10027 10026 10024 10023 10021 10019 10017 10015 10013 10010 10007 10004 10000 9997 9993 9989 9985 9980 9976 9971 9965 9960 9955 9950 9945 9940 9935 9931 9926
10144 10140 10137 10133 10129 10125 10121 10118 10114 10110 10106 10102 10098 10094 10091 10087 10084 10081 10078 10076 10074 10072 10071 10070 10068 10067 10065 10063 10061 10059 10057 10055 10053 10052 10050 10048 10046 10044 10043 10041 10040 10039 10038 10037 10036 10035 10034 10033 10033 10032 10031 10030 10029 10028 10027 10026 10025 10023 10022 10020 10018 10016 10014 10012 10009 10006 10003 9999 9996 9992 9988 9984 9980 9976 9971 9966 9960 9955 9950 9945 9940 9935 9930 9925 9919
10141 10137 10133 10130 10126 10122 10118 10115 10111 10107 10103 10098 10094 10090 10086 10083 10079 10076 10073 10070 10068 10066 10065 10064 10063 10062 10060 10059 10057 10055 10054 10052 10050 10049 10047 10046 10044 10043 10041 10040 10039 10037 10036 10036 10035 10034 10033 10032 10031 10030 10030 10029 10027 10026 10025 10024 10022 10021 10019 10017 10015 10013 10011 10008 10005 10002 9999 9995 9992 9988 9984 9980 9976 9971 9966 9961 9956 9951 9945 9940 9935 9929 9924 9919 9913
10137 10134 10130 10126 10123 10119 10115 10111 10107 10103 10099 10095 10091 10086 10082 10078 10074 10071 10068 10065 10062 10060 10058 10057 10057 10056 10055 10054 10053 10051 10050 10048 10047 10046 10044 10043 10042 10041 10039 10038 10037 10036 10035 10034 10033 10032 10031 10030 10029 10029 10028 10027 10025 10024 10023 10021 10020 10018 10016 10014 10012 10010 10007 10004 10001 9998 9995 9991 9988 9984 9980 9976 9971 9966 9961 9956 9951 9946 9941 9935 9929 9924 9918 9913 9908
10133 10129 10126 10122 10119 10115 10111 10107 10103 10099 10095 10091 10087 10083 10078 10074 10069 10065 10062 10059 10056 10054 10052 10050 10050 10050 10049 10049 10048 10047 10046 10044 10043 10042 10041 10040 10039 10038 10037 10036 10035 10034 10033 10032 10031 10030 10029 10028 10027 10027 10026 10024 10023 10022 10020 10019 10017 10015 10013 10011 10009 10006 10004 10001 9998 9994 9991 9987 9984 9980 9975 9971 9967 9962 9957 9952 9946 9941 9936 9929 9924 9918 9912 9907 9902
10128 10125 10121 10117 10114 10110 10106 10102 10099 10095 10091 10087 10083 10078 10074 10069 10065 10060 10056 10053 10050 10048 10046 10045 10044 10043 10043 10043 10043 10042 10042 10041 10039 10038 10037 10036 10036 10035 10034 10033 10033 10032 10031 10030 10028 10027 10027 10026 10025 10024 10023 10022 10021 10019 10018 10016 10014 10012 10010 10008 10005 10003 10000 9997 9994 9990 9987 9983 9979 9975 9971 9967 9962 9957 9953 9948 9942 9936 9931 9924 9918 9912 9907 9901 9896
10124 10120 10117 10112 10108 10105 10101 10097 10093 10090 10086 10082 10078 10073 10069 10065 10060 10055 10051 10047 10045 10043 10040 10039 10037 10037 10036 10036 10037 10037 10037 10036 10035 10034 10033 10033 10032 10031 10031 10030 10030 10029 10028 10027 10026 10025 10024 10023 10022 10021 10020 10019 10018 10016 10015 10013 10011 10009 10007 10005 10002 9999 9996 9993 9990 9986 9983 9979 9975 9971 9967 9963 9958 9953 9948 9943 9938 9932 9926 9920 9914 9907 9902 9896 9890
10120 10116 10112 10108 10104 10100 10096 10092 10088 10084 10080 10076 10072 10068 10064 10059 10055 10050 10045 10042 10039 10037 10035 10033 10031 10030 10030 10030 10030 10030 10031 10031 10031 10030 10029 10028 10028 10027 10027 10026 10026 10025 10024 10023 10022 10022 10021 10020 10019 10018 10017 10016 10015 10013 10011 10010 10008 10006 10003 10001 9998 9996 9993 9989 9986 9983 9979 9975 9971 9967 9963 9958 9954 9949 9943 9938 9933 9927 9921 9915 9909 9903 9897 9891 9885
10115 10112 10108 10103 10099 10095 10091 10088 10084 10079 10075 10071 10067 10062 10058 10054 10049 10045 10040 10036 10034 10031 10029 10027 10025 10024 10023 10023 10023 10023 10024 10025 10025 10025 10024 10024 10024 10023 10023 10022 10022 10021 10020 10020 10019 10018 10017 10016 10015 10014 10013 10012 10011 10010 10008 10006 10004 10002 10000 9997 9995 9992 9989 9986 9982 9979 9975 9971 9967 9963 9959 9954 9950 9945 9940 9934 9928 9922 9916 9910 9904 9898 9892 9886 9880
10110 10106 10103 10098 10094 10091 10087 10083 10079 10075 10071 10067 10062 10057 10052 10048 10043 10039 10035 10031 10028 10026 10023 10020 10019 10017 10016 10016 10016 10016 10017 10018 10019 10019 10019 10019 10019 10019 10018 10018 10017 10017 10016 10015 10015 10014 10013 10013 10012 10011 10009 10008 10007 10006 10004 10002 10001 9999 9996 9994 9991 9988 9985 9982 9979 9975 9971 9968 9964 9960 9955 9951 9946 9941 9936 9930 9924 9918 9912 9906 9900 9894 9888 9881 9875
10104 10101 10097 10093 10089 10085 10081 10078 10074 10070 10066 10062 10058 10052 10047 10043 10038 10033 10029 10025 10022 10020 10018 10015 10012 10011 10010 10009 10009 10009 10009 10010 10011 10013 10013 10014 10013 10013 10013 10013 10013 10012 10012 10011 10011 10010 10009 10009 10008 10006 10005 10004 10003 10002 10000 9999 9997 9995 9992 9990 9987 9984 9981 9978 9975 9971 9968 9964 9960 9956 9952 9947 9942 9937 9932 9926 9921 9915 9908 9902 9896 9889 9883 9877 9870
10098 10095 10092 10088 10083 10079 10075 10072 10068 10064 10061 10057 10053 10048 10043 10038 10033 10029 10024 10020 10017 10014 10012 10010 10007 10005 10004 10003 10002 10002 10002 10003 10004 10005 10006 10007 10008 10008 10008 10008 10008 10007 10007 10006 10006 10005 10005 10004 10003 10002 10001 10000 9999 9998 9996 9995 9993 9991 9989 9986 9983 9981 9978 9974 9971 9968 9964 9960 9956 9952 9948 9943 9939 9934 9928 9923 9917 9911 9904 9898 9892 9885 9879 9873 9866